www.pogodaiklimat.ru

Погода и климат >> Архив погоды >> Австралия >> Новый Южный Уэльс >> Тибообера


ПОГОДА в Тибообере

  • Прогноз погоды в Тибообере
  • Монитор погоды в Тибообере

АРХИВ ПОГОДЫ в Тибообере

Время (UTC), дата Ветер
(напр.,м/с)
 
Видим.   Явления Облачность Т
(С)
Тd
(С)
f
(%)
Тe
(С)
Тes
(С)
Комфортность P
(гПа)
Po
(гПа)
Тmin
(С)
Tmax
(С)
R
(мм)
R24
(мм)
S
(см)
04 13.02 Ю 7 н/о н/о +23.4 -2.2 18 +22 +22 комфорт 1012.6 992.7
05 13.02 Ю 6 н/о н/о +25.6 -2.9 15 +23 +23 комфорт 1012.2 992.3
06 13.02 ЮВ 7 н/о н/о +25.6 -4.8 13 +23 +23 комфорт 1011.8 991.9
07 13.02 Ю 6 н/о н/о +25.1 -5.2 13 +23 +23 комфорт 1011.6 991.7
08 13.02 Ю 7 н/о н/о +24.6 -4.6 14 +22 +22 комфорт 1011.9 992.0
09 13.02 Ю 7 н/о н/о +23.7 -3.6 16 +22 +22 комфорт 1012.5 992.6
10 13.02 Ю 6 н/о н/о +23.0 -3.3 17 +21 +21 комфорт 1013.3 993.4
11 13.02 Ю 6 н/о н/о +22.5 -3.0 18 +21 +21 комфорт 1014.0 994.1
12 13.02 Ю 5 н/о н/о +21.5 -2.4 20 +21 +21 комфорт 1014.6 994.6
13 13.02 Ю 4 н/о н/о +20.6 -2.5 21 +20 +20 1014.8 994.8 +29.7
14 13.02 Ю 5 н/о н/о +19.9 -2.4 22 +20 +20 1014.7 994.7
15 13.02 Ю 6 н/о н/о +19.6 -2.1 23 +19 +19 1014.3 994.4
16 13.02 Ю 5 н/о н/о +19.0 -1.4 25 +19 +19 1014.2 994.3
17 13.02 Ю 5 н/о н/о +18.4 -1.4 26 +18 +18 1014.3 994.4
18 13.02 Ю 5 н/о н/о +17.9 -1.3 27 +17 +17 1014.7 994.7
19 13.02 Ю 5 н/о н/о +17.5 -1.2 28 +17 +17 1015.2 995.2
20 13.02 ЮВ 5 н/о н/о +17.0 -1.1 29 +16 +16 1015.6 995.6
21 13.02 ЮВ 5 н/о н/о +17.6 -1.6 27 +17 +17 1016.6 996.6
22 13.02 ЮВ 6 н/о н/о +20.5 -1.9 22 +20 +20 1017.5 997.5
23 13.02 ЮВ 8 н/о н/о +21.7 -2.9 19 +21 +21 комфорт 1017.8 997.8
00 14.02 ЮВ 8 н/о н/о +23.7 -2.8 17 +22 +22 комфорт 1018.0 998.0
01 14.02 ЮВ 8 н/о н/о +24.6 -3.7 15 +23 +23 комфорт 1017.7 997.7 +16.8
02 14.02 Ю 8 н/о н/о +25.4 -5.0 13 +23 +23 комфорт 1017.1 997.1
03 14.02 ЮВ 7 н/о н/о +27.2 -7.0 10 +24 +24 комфорт 1016.2 996.2
04 14.02 Ю 9 н/о н/о +28.2 -6.3 10 +25 +25 комфорт 1015.6 995.6
05 14.02 ЮВ 7 н/о н/о +28.3 -7.6 9 +25 +25 комфорт 1014.7 994.7
06 14.02 ЮВ 8 н/о н/о +28.8 -7.2 9 +25 +25 комфорт 1014.3 994.4
07 14.02 ЮВ 7 н/о н/о +29.2 -8.4 8 +25 +25 комфорт 1014.4 994.5
08 14.02 ЮВ 6 н/о н/о +29.1 -8.5 8 +25 +25 комфорт 1014.4 994.5
09 14.02 ЮВ 6 н/о н/о +28.1 -7.7 9 +25 +25 комфорт 1014.8 994.8
10 14.02 ЮВ 5 н/о н/о +27.0 -7.2 10 +24 +24 комфорт 1015.5 995.5
11 14.02 Ю 4 н/о н/о +25.6 -7.0 11 +23 +23 комфорт 1016.3 996.3
12 14.02 Ю 4 н/о н/о +24.1 -6.0 13 +22 +22 комфорт 1016.6 996.6
13 14.02 Ю 4 н/о н/о +23.5 -5.5 14 +22 +22 комфорт 1016.4 996.4 +29.9
14 14.02 Ю 5 н/о н/о +23.2 -4.8 15 +21 +21 комфорт 1016.5 996.5
15 14.02 Ю 6 н/о н/о +22.6 -4.5 16 +21 +21 комфорт 1016.2 996.2
16 14.02 Ю 6 н/о н/о +22.2 -4.0 17 +21 +21 комфорт 1015.9 995.9
17 14.02 Ю 6 н/о н/о +21.2 -4.0 18 +20 +20 1015.7 995.7
18 14.02 Ю 6 н/о н/о +21.0 -3.5 19 +20 +20 1015.7 995.7
19 14.02 Ю 6 н/о н/о +21.0 -2.8 20 +21 +21 комфорт 1015.9 995.9
20 14.02 Ю 6 н/о н/о +20.4 -2.6 21 +20 +20 1016.4 996.4
21 14.02 Ю 6 н/о н/о +21.0 -2.1 21 +21 +21 комфорт 1017.1 997.1
22 14.02 ЮВ 7 н/о н/о +23.8 -2.7 17 +22 +22 комфорт 1017.2 997.2
23 14.02 ЮВ 8 н/о н/о +25.8 -2.8 15 +24 +24 комфорт 1017.3 997.3
00 15.02 ЮВ 8 н/о н/о +28.3 -0.8 15 +26 +26 жарко 1017.4 997.4
01 15.02 ЮВ 6 н/о н/о +30.8 +2.1 16 +28 +28 жарко 1016.8 996.8 +20.1
02 15.02 ЮВ 6 н/о н/о +32.0 +2.1 15 +29 +29 жарко 1016.1 996.1
03 15.02 Ю 6 н/о н/о +33.5 +4.2 16 +31 +31 жарко 1015.2 995.2
04 15.02 ЮВ 8 н/о н/о +34.7 +3.3 14 +32 +32 жарко 1014.0 994.1
05 15.02 Ю 5 н/о н/о +35.9 +5.2 15 +33 +33 жарко 1013.0 993.1
06 15.02 ЮВ 6 н/о н/о +34.8 +3.4 14 +32 +32 жарко 1012.4 992.5
07 15.02 ЮВ 7 н/о н/о +35.8 +2.0 12 +32 +32 жарко 1012.2 992.3
08 15.02 ЮВ 6 н/о н/о +35.0 -2.6 9 +31 +31 жарко 1012.1 992.2
09 15.02 ЮВ 6 н/о н/о +33.8 -3.5 9 +30 +30 жарко 1012.5 992.6
10 15.02 ЮВ 4 н/о н/о +32.2 -2.0 11 +29 +29 жарко 1013.0 993.1
11 15.02 Ю 4 н/о н/о +30.3 -1.2 13 +27 +27 жарко 1013.5 993.6
12 15.02 Ю 4 н/о н/о +29.2 +2.5 18 +27 +27 жарко 1013.7 993.8
13 15.02 Ю 4 н/о н/о +28.5 +4.1 21 +27 +27 жарко 1013.5 993.6 +36.6
14 15.02 Ю 6 н/о н/о +28.1 -0.9 15 +26 +26 жарко 1013.6 993.7
15 15.02 Ю 6 н/о н/о +27.8 -2.1 14 +25 +25 комфорт 1013.4 993.5
16 15.02 Ю 6 н/о н/о +27.1 -3.7 13 +24 +24 комфорт 1013.1 993.2
17 15.02 Ю 6 н/о н/о +26.5 -4.1 13 +24 +24 комфорт 1013.0 993.1
18 15.02 Ю 6 н/о н/о +26.0 -4.5 13 +23 +23 комфорт 1012.7 992.8
19 15.02 Ю 5 н/о н/о +25.6 -3.8 14 +23 +23 комфорт 1012.5 992.6
20 15.02 Ю 5 н/о н/о +25.1 -3.3 15 +23 +23 комфорт 1012.7 992.8
21 15.02 Ю 6 н/о н/о +25.8 -2.8 15 +24 +24 комфорт 1013.3 993.4
22 15.02 Ю 6 н/о н/о +28.1 -0.9 15 +26 +26 жарко 1013.5 993.6
23 15.02 ЮВ 7 н/о н/о +30.7 +2.9 17 +28 +28 жарко 1013.2 993.3
00 16.02 В 7 н/о н/о +33.2 +5.7 18 +31 +31 жарко 1013.4 993.5
01 16.02 В 6 н/о н/о +35.3 +8.2 19 +34 +34 очень
жарко
1012.6 992.7 +25.1
02 16.02 СВ 5 н/о н/о +37.0 +7.9 17 +35 +35 очень
жарко
1011.6 991.7
03 16.02 В 4 н/о н/о +36.8 +3.9 13 +34 +34 очень
жарко
1010.8 990.9
04 16.02 С 3 н/о н/о +38.0 +3.7 12 +35 +35 очень
жарко
1009.8 989.9
05 16.02 СВ 5 н/о н/о +38.0 +2.5 11 +35 +35 очень
жарко
1008.7 988.9
06 16.02 В 3 н/о н/о +38.2 +3.8 12 +35 +35 очень
жарко
1008.2 988.4
07 16.02 ЮВ 3 н/о н/о +38.4 +2.8 11 +35 +35 очень
жарко
1007.8 988.0
08 16.02 Ю 4 н/о н/о +37.6 +3.4 12 +34 +34 очень
жарко
1007.5 987.7
09 16.02 ЮВ 5 н/о н/о +37.2 +4.2 13 +34 +34 очень
жарко
1007.8 988.0
10 16.02 ЮВ 4 н/о н/о +35.8 +5.1 15 +33 +33 жарко 1008.3 988.5
11 16.02 ЮВ 6 н/о н/о +35.0 +5.4 16 +32 +32 жарко 1008.9 989.1
12 16.02 ЮВ 5 н/о н/о +33.9 +5.4 17 +32 +32 жарко 1009.2 989.4
13 16.02 ЮВ 6 н/о н/о +33.0 +4.7 17 +31 +31 жарко 1009.3 989.5 +39.9
14 16.02 ЮВ 7 н/о н/о +32.4 +5.1 18 +30 +30 жарко 1009.2 989.4
15 16.02 ЮВ 7 н/о н/о +32.1 +4.8 18 +30 +30 жарко 1008.6 988.8
16 16.02 ЮВ 7 н/о н/о +31.7 +3.7 17 +29 +29 жарко 1008.2 988.4
17 16.02 ЮВ 6 н/о н/о +31.0 +3.9 18 +29 +29 жарко 1007.9 988.1
18 16.02 ЮВ 5 н/о н/о +29.9 +3.8 19 +28 +28 жарко 1007.9 988.1
19 16.02 В 4 н/о н/о +28.8 +5.0 22 +27 +27 жарко 1008.0 988.2
20 16.02 В 5 н/о н/о +28.3 +5.2 23 +27 +27 жарко 1008.5 988.7
21 16.02 В 4 н/о н/о +28.2 +5.7 24 +27 +27 жарко 1008.7 988.9
22 16.02 В 6 н/о н/о +31.0 +8.1 24 +30 +30 жарко 1009.1 989.3
23 16.02 СВ 8 н/о н/о +33.2 +13.3 30 +34 +34 очень
жарко
1009.2 989.4
00 17.02 СВ 7 н/о н/о +34.8 +13.0 27 +35 +35 очень
жарко
1009.2 989.4
01 17.02 СВ 7 н/о н/о +36.5 +11.3 22 +36 +36 очень
жарко
1009.0 989.2 +27.8
02 17.02 СВ 7 н/о н/о +38.8 +10.2 18 +37 +37 очень
жарко
1008.1 988.3
03 17.02 СВ 2 н/о н/о +39.4 +8.0 15 +37 +37 очень
жарко
1007.3 987.5
04 17.02 В 4 н/о н/о +39.6 +4.9 12 +37 +37 очень
жарко
1006.3 986.5
05 17.02 СВ 3 н/о н/о +40.6 +1.6 9 +37 +37 очень
жарко
1005.2 985.4
06 17.02 С 3 н/о н/о +39.9 +1.1 9 +36 +36 очень
жарко
1004.2 984.5
07 17.02 СЗ 2 н/о н/о +39.9 +1.1 9 +36 +36 очень
жарко
1003.8 984.1
08 17.02 З 6 н/о н/о +38.9 +1.8 10 +35 +35 очень
жарко
1003.9 984.2
09 17.02 ЮВ 2 н/о н/о +38.7 +1.6 10 +35 +35 очень
жарко
1004.2 984.5
10 17.02 Ю 5 н/о н/о +36.7 +6.8 16 +34 +34 очень
жарко
1005.2 985.4
11 17.02 ЮВ 8 н/о н/о +33.5 +10.8 25 +33 +33 жарко 1006.2 986.4
12 17.02 ЮВ 7 н/о н/о +33.4 +10.1 24 +33 +33 жарко 1006.5 986.7
13 17.02 В 5 н/о н/о +32.2 +10.3 26 +32 +32 жарко 1006.5 986.7 +41.4
14 17.02 ЮВ 4 н/о н/о +30.9 +10.3 28 +31 +31 жарко 1006.4 986.6
15 17.02 В 4 н/о н/о +29.8 +9.9 29 +30 +30 жарко 1005.8 986.0
16 17.02 ЮВ 4 н/о н/о +29.5 +9.6 29 +29 +29 жарко 1005.3 985.5
17 17.02 В 5 н/о н/о +29.3 +8.9 28 +29 +29 жарко 1004.9 985.1
18 17.02 В 3 н/о н/о +28.3 +8.6 29 +28 +28 жарко 1004.7 984.9
19 17.02 В 3 н/о н/о +27.0 +8.9 32 +27 +27 жарко 1004.7 984.9
20 17.02 В 3 н/о н/о +26.3 +8.8 33 +27 +27 жарко 1005.3 985.5
21 17.02 В 3 н/о н/о +27.0 +9.4 33 +27 +27 жарко 1005.8 986.0
22 17.02 В 5 н/о н/о +30.2 +9.7 28 +30 +30 жарко 1006.2 986.4
23 17.02 СВ 5 н/о н/о +33.0 +10.9 26 +33 +33 жарко 1006.4 986.6
00 18.02 С 4 н/о н/о +35.0 +10.1 22 +34 +34 очень
жарко
1006.4 986.6
01 18.02 С 2 н/о н/о +37.9 +7.7 16 +36 +36 очень
жарко
1005.9 986.1 +26.0
02 18.02 З 4 н/о н/о +40.2 +2.8 10 +37 +37 очень
жарко
1005.5 985.7
03 18.02 З 7 н/о н/о +40.0 -0.5 8 +36 +36 очень
жарко
1004.8 985.0
04 18.02 З 6 н/о н/о +41.5 -1.2 7 +38 +38 очень
жарко
1004.0 984.3
05 18.02 З 8 н/о н/о +41.7 +0.8 8 +38 +38 очень
жарко
1003.2 983.5
06 18.02 ЮЗ 5 н/о н/о +41.4 -1.3 7 +37 +37 очень
жарко
1002.9 983.2
07 18.02 З 4 н/о н/о +41.1 -1.5 7 +37 +37 очень
жарко
1002.9 983.2
08 18.02 ЮЗ 6 н/о н/о +40.5 -4.0 6 +36 +36 очень
жарко
1002.9 983.2
09 18.02 ЮЗ 6 н/о н/о +39.6 -7.0 5 +35 +35 очень
жарко
1003.4 983.7
10 18.02 З 4 н/о н/о +37.1 -6.4 6 +33 +33 жарко 1004.0 984.3
11 18.02 З 4 н/о н/о +34.8 -6.0 7 +31 +31 жарко 1004.6 984.8
12 18.02 СЗ 4 н/о н/о +34.2 -6.5 7 +30 +30 жарко 1004.7 984.9
13 18.02 ЮЗ 8 н/о н/о +33.6 -5.2 8 +30 +30 жарко 1005.3 985.5 +42.4
14 18.02 Ю 10 н/о н/о +31.8 +6.1 20 +30 +30 жарко 1006.0 986.2
15 18.02 Ю 8 н/о н/о +29.8 +6.5 23 +29 +29 жарко 1006.5 986.7
16 18.02 Ю 9 н/о н/о +28.3 +6.4 25 +27 +27 жарко 1006.6 986.8
17 18.02 Ю 9 н/о н/о +26.3 +5.8 27 +26 +26 жарко 1006.9 987.1
18 18.02 Ю 8 н/о н/о +25.4 +6.1 29 +25 +25 комфорт 1006.8 987.0
19 18.02 Ю 8 н/о н/о +24.6 +5.9 30 +24 +24 комфорт 1007.4 987.6
20 18.02 Ю 9 н/о н/о +23.6 +5.5 31 +24 +24 комфорт 1008.0 988.2
21 18.02 Ю 8 н/о н/о +23.1 +4.6 30 +23 +23 комфорт 1008.9 989.1
22 18.02 Ю 8 н/о н/о +23.6 +4.5 29 +23 +23 комфорт 1009.8 989.9
23 18.02 Ю 9 н/о н/о +24.6 +4.9 28 +24 +24 комфорт 1010.2 990.3
00 19.02 Ю 8 н/о н/о +25.8 +4.9 26 +25 +25 комфорт 1010.5 990.6
01 19.02 Ю 9 н/о н/о +27.3 +5.0 24 +26 +26 жарко 1010.2 990.3 +23.2
02 19.02 Ю 8 н/о н/о +28.8 +4.3 21 +27 +27 жарко 1009.7 989.8
03 19.02 Ю 8 н/о н/о +30.4 +2.6 17 +28 +28 жарко 1009.2 989.4
04 19.02 Ю 7 н/о н/о +31.9 +0.1 13 +29 +29 жарко 1008.6 988.8
05 19.02 Ю 8 н/о н/о +32.0 -2.1 11 +28 +28 жарко 1008.2 988.4
06 19.02 Ю 7 н/о н/о +32.6 -2.9 10 +29 +29 жарко 1008.1 988.3
07 19.02 Ю 9 н/о н/о +32.6 -5.9 8 +29 +29 жарко 1008.4 988.6
08 19.02 Ю 8 н/о н/о +31.8 -8.2 7 +28 +28 жарко 1008.7 988.9
09 19.02 Ю 8 н/о н/о +30.5 -9.1 7 +26 +26 жарко 1009.4 989.6
10 19.02 Ю 7 н/о н/о +28.9 -8.6 8 +25 +25 комфорт 1010.3 990.4
11 19.02 Ю 6 н/о н/о +27.6 -8.1 9 +24 +24 комфорт 1011.0 991.1
12 19.02 Ю 6 н/о н/о +26.4 -9.0 9 +23 +23 комфорт 1011.5 991.6
13 19.02 Ю 5 н/о н/о +25.2 -7.3 11 +23 +23 комфорт 1011.7 991.8 +34.5
14 19.02 Ю 6 н/о н/о +24.3 -4.9 14 +22 +22 комфорт 1011.7 991.8
15 19.02 Ю 6 н/о н/о +23.1 -3.3 17 +21 +21 комфорт 1011.5 991.6
16 19.02 Ю 6 н/о н/о +22.3 -2.4 19 +21 +21 комфорт 1011.3 991.4
17 19.02 Ю 6 н/о н/о +21.7 -1.6 21 +21 +21 комфорт 1011.2 991.3
18 19.02 Ю 5 н/о н/о +20.8 -1.1 23 +21 +21 комфорт 1011.2 991.3
19 19.02 Ю 5 н/о н/о +20.4 -0.8 24 +20 +20 1011.7 991.8
20 19.02 Ю 5 н/о н/о +19.7 -0.3 26 +20 +20 1012.4 992.5
21 19.02 Ю 6 н/о н/о +20.3 +0.2 26 +20 +20 1012.9 993.0
22 19.02 ЮВ 7 н/о н/о +22.4 +0.3 23 +22 +22 комфорт 1013.7 993.8
23 19.02 ЮВ 7 н/о н/о +23.7 +0.1 21 +23 +23 комфорт 1014.4 994.5
00 20.02 ЮВ 7 н/о н/о +25.8 +0.5 19 +24 +24 комфорт 1014.7 994.7
01 20.02 Ю 7 н/о н/о +27.2 +0.1 17 +25 +25 комфорт 1014.8 994.8 +19.5
02 20.02 Ю 7 н/о н/о +28.1 -2.9 13 +25 +25 комфорт 1013.9 994.0
03 20.02 Ю 7 н/о н/о +29.4 -2.9 12 +26 +26 жарко 1012.8 992.9
04 20.02 Ю 8 н/о н/о +30.3 -4.7 10 +27 +27 жарко 1012.1 992.2

 

Местоположение метеостанции Тибообера (Новый Южный Уэльс, Австралия): широта -29.45 долгота 142.05 высота над уровнем моря 177 м.

В архиве по умолчанию представлена погода в Тибообере за последнюю неделю. Архивные данные за месяц целиком и за предыдущие месяцы, начиная с января 2011 года, Вы можете получить, выбрав интересующий диапазон дат из раскрывающегося списка и нажав кнопку "Ввод!".


*Определитесь, кто Вы:
робот инопланетянин человек

Внимание! Время в таблицах - всемирное. Для получения местного времени необходимо прибавить поправку, которая равна 10 ч.

Смотрите также архив погоды в соседних городах и на ближайших метеорологических станциях:

Погода в Уафт Клифс (Новый Южный Уэльс, Австралия) (184 км)
Погода в Фоулерс Гэп (Новый Южный Уэльс, Австралия) (184 км)
Погода в Месторождении Ballera (Квинсленд, Австралия) (227 км)
Погода в Мумбе (Южная Австралия, Австралия) (235 км)
Погода в Таргоминде (Квинсленд, Австралия) (237 км)
Погода в Уилкании (Новый Южный Уэльс, Австралия) (263 км)
Погода в Брокен-Хилле (Новый Южный Уэльс, Австралия) (289 км)
Погода в Ли-Крике (Южная Австралия, Австралия) (372 км)
Погода в Бурке (Новый Южный Уэльс, Австралия) (382 км)
Погода в Марри (Южная Австралия, Австралия) (387 км)

Пояснения к столбцам:

Ветер - указаны скорость ветра в м/с - средняя за 10 мин, порывы в срок и между сроками (в фигурных скобках) и направление, откуда дует ветер: С - северный, СВ - северо-восточный, В - восточный, ЮВ - юго-восточный, Ю - южный, ЮЗ - юго-западный, З - западный, СЗ - северо-западный.
Видимость - горизонтальная дальность видимости в метрах или километрах. При видимости от 1 до 10 км при отсутствии осадков обычно наблюдается дымка, при ухудшении видимости до 1 км и менее - туман. В сухую погоду видимость может ухудшаться дымом, пылью или мглою.
Явления - указаны атмосферные явления, наблюдавшиеся в срок или в последний час перед сроком; фигурными скобками обозначены явления, наблюдавшиеся между сроками (за 1-3 часа до срока); квадратными скобками обозначены град или гололедные отложения с указанием их диаметра в мм.
Облачность - указаны через наклонную черту общая и нижняя облачность в баллах и высота нижней границы облаков в метрах; квадратными скобками обозначены формы облаков: Ci - перистые, Cs - перисто-слоистые, Cc - перисто-кучевые, Ac - высококучевые, As - высокослоистые, Sc - слоисто-кучевые, Ns - слоисто-дождевые, Cu - кучевые, Cb - кучево-дождевые. Подробнее классификацию облаков см. в Атласе облаков (PDF).
T - Температура воздуха - температура, измеренная на высоте 2 м над землей.
Td - Температура точки росы - температура, при понижении до которой содержащийся в воздухе водяной пар достигнет насыщения.
f - Относительная влажность воздуха - влажноcть воздуха, измеренная на высоте 2 м над землей.
Te - Эффективная температура - температура, которую ощущает одетый по сезону человек в тени. Характеристика душности погоды. При расчете учитывается влияние влажности воздуха и скорости ветра на теплоощущения человека.
Tes - Эффективная температура на солнце - температура, которую ощущает человек, с поправкой на солнечный нагрев. Характеристика знойности погоды. Зависит от высоты солнца над горизонтом, облачности и скорости ветра. Ночью, в пасмурную погоду, а также при ветре 12 м/с и более поправка равна нулю.
P - Атмосферное давление - приведенное к уровню моря атмосферное давление.
Po - Атмосферное давление - измеренное на уровне метеостанции атмосферное давление.
Tmin - Минимальная температура - минимум температуры воздуха на высоте 2 м над землей.
Tmax - Максимальная температура - максимум температуры воздуха на высоте 2 м над землей.
R - Количество осадков - Количество выпавших осадков за период времени, мм. При наведении курсора мыши на число - период времени, за который выпало указанное количество осадков.
R24 - Количество осадков - Количество выпавших осадков за 24 часа, мм.
S - Снежный покров - Высота снежного покрова, см. При наведении курсора мыши на число - состояние снежного покрова и степень покрытия местности в баллах.